OpenBCM V1.08-5-g2f4a (Linux)

Packet Radio Mailbox

IZ3LSV

[San Dona' di P. JN]

 Login: GUEST





  
WG3K   > ANS      08.09.24 03:21l 441 Lines 21867 Bytes #75 (0) @ AMSAT
BID : ANS252.13
Read: GUEST
Subj: Satellite Shorts From All Over
Path: IZ3LSV<DB0ERF<DK0WUE<DK0WUE<VK5RSV<VK2RZ<KC9UHI<KA1VSC<WG3K
Sent: 240908/0218Z 8001@WG3K.#SMD.MD.USA.NOAM LinBPQ6.0.24


- Yaesu has announced the upcoming FTX-1F HF/6/144/440 portable
   transceiver, presumably a replacement for the FT-816/817 series of
   transceivers that were very popular among satellite operators. The
   transceiver is said to have two independent SDR receivers that provide
   simultaneous dual-band operation, whether in the same or in different
   bands. (Editors note: This does not necessarily mean that the transceiver
   will operate in full duplex mode.) It will provide 6W of power output with
   the included 5670mAh Lithium-ion battery pack or up to 10W with external
   power. Average CW/SSB operating time in the VHF/UHF bands is quoted as up
   to 8 hours. SSB, CW, AM, FM and C4FM operation is available. USB ports
   support CAT operation, audio input/output and TX control. The FTX-1F has
   not been formally been released for sale in the United States but should be
   available early 2025. [ANS thanks Yaesu for the above information.]

   - JAXA officially ended the mission of SLIM, the countrys first Moon
   lander, last week. Originally only expected to operate for a single lunar
   day and then feared to be doomed after it landed in the incorrect
   orientation after losing an engine bell, the mission managed to survive 3
   lunar nights and complete all pre-mission success criteria. SLIM is the
   first lunar lander to successfully perform a “pinpoint” landing, arriving
   within 10 meters of its selected landing site. [ANS thanks The Orbital
   Index for the above information.]

   - The average age of a GPS satellite is now 13 years, with half of them
   exceeding their designed lifespan. The USA-132 satellite broke the record
   for the oldest GPS satellite in history, having completed 27+ years in
   operation. While the record is an indicator of the reliability and robust
   engineering of the GPS satellite, it also means that the service still
   relies on hardware built in the 1990s. 31 GPS satellites are in operation
   today, down from 36 in 2016. The GPS system was primarily designed for
   military purposes but was opened up to wide-scale civilian use in 1983.
   Since then, GPS has grown into one of the most widely used services in the
   world, with billions of people using GPS on a daily basis today. The
   overall GPS network still works well. But the aging satellites, coupled
   with the delays in the launch schedule for new satellites, threaten its
   competitive edge as international rivals bring into service their own GNSS
   systems and private companies develop alternatives. (ANS thanks
   PayloadSpace.com for the above information. Fact-filled full article
   available at:
   https://payloadspace.com/rise-and-stall-of-gps-the-average-age-of-gps-satellites-hits-13-years/
   /EX
   
   SB KEPS @ AMSAT  $ORB24252.1
2Line Orbital Elements 24252.AMSAT

QST de W1STR

AMSAT Orbital Elements for Amateur Satellites in TLE Format
From Orbital Analysis Office
New England Sci-Tech STEM Education Center
Natick, MA September 08, 2024
To all radio amateurs


These element sets describe the orbits of various satellites 
in use by the amateur radio community. For details see:
www.amsat.org/keplerian-elements-formats/

A daily update of element sets is available at:
www.amsat.org/tle/daily-bulletin.txt
or without bulletin text:
www.amsat.org/tle/dailytle.txt


AO-07
1 07530U 74089B   24251.51448895 -.00000027  00000-0  12349-3 0  9993
2 07530 101.9848 246.9495 0011881 288.2115 197.2975 12.53679061279595
UO-11
1 14781U 84021B   24251.85931278  .00006688  00000-0  74640-3 0  9995
2 14781  97.7140 218.7112 0008837 152.4357 207.7329 14.87295237181778
AO-27
1 22825U 93061C   24251.44173741  .00000613  00000-0  25241-3 0  9990
2 22825  98.7809 305.0473 0008234 191.3887 168.7110 14.30571526614377
FO-29
1 24278U 96046B   24251.41259102  .00000193  00000-0  23442-3 0  9997
2 24278  98.5792 175.2843 0349715 335.4646  23.0193 13.53206942385554
NOAA-15
1 25338U 98030A   24251.85509635  .00000868  00000-0  37641-3 0  9992
2 25338  98.5652 277.2452 0011450  84.5289 275.7197 14.26696922369221
GO-32
1 25397U 98043D   24251.86338359  .00000639  00000-0  29784-3 0  9990
2 25397  98.9309 219.8566 0000343 329.7129  30.4029 14.24114598359404
ISS
1 25544U 98067A   24251.87549667 -.00007572  00000-0 -13069-3 0  9991
2 25544  51.6387 265.7341 0007566 322.7931  98.9864 15.48678487471375
NO-44
1 26931U 01043C   24251.38270136  .00000872  00000-0  35984-3 0  9992
2 26931  67.0502 119.1905 0007726 268.7309  91.2908 14.31357581197718
SO-50
1 27607U 02058C   24251.61136543  .00005475  00000-0  74263-3 0  9996
2 27607  64.5569 328.1019 0026176  66.3656 294.0192 14.79587405168728
CO-55
1 27844U 03031E   24251.54867654  .00001735  00000-0  78262-3 0  9995
2 27844  98.6795 257.4452 0008452 265.2632  94.7582 14.23440650 99502
CO-57
1 27848U 03031J   24251.23452475  .00001389  00000-0  63783-3 0  9993
2 27848  98.6828 257.3326 0008390 285.3001  74.7250 14.22855267 99206
RS-22
1 27939U 03042A   24251.85045524  .00006575  00000-0  10902-2 0  9993
2 27939  98.3020  49.4319 0012245 155.3036 341.0076 14.70517176120420
NOAA-18
1 28654U 05018A   24251.82865704  .00000861  00000-0  48221-3 0  9998
2 28654  98.8695 328.0938 0014266 185.1264 174.9765 14.13316627994938
CO-58
1 28895U 05043F   24251.37315695  .00007588  00000-0  13160-2 0  9998
2 28895  98.2134  27.4006 0016325  97.9459 262.3599 14.68436420  6516
CO-65
1 32785U 08021C   24251.54470237  .00015721  00000-0  13226-2 0  9994
2 32785  97.7640 216.2924 0012916  57.6454 302.6016 14.98275538887807
AAUSAT2
1 32788U 08021F   24251.53272478  .00065390  00000-0  27248-2 0  9999
2 32788  97.6002 232.3384 0003266 176.5878 183.5382 15.23452927890836
CO-66
1 32791U 08021J   24251.51356698  .00028659  00000-0  19378-2 0  9990
2 32791  97.6990 222.3836 0007098  56.4321 303.7582 15.06480758888900
RS-30
1 32953U 08025A   24251.80554274  .00000053  00000-0  31122-3 0  9996
2 32953  82.5038  38.0830 0018601 284.7847  75.1172 12.43147425739395
PRISM
1 33493U 09002B   24251.43278140  .00071169  00000-0  27783-2 0  9999
2 33493  98.1950 306.4484 0009411 322.4567  37.6010 15.25583522851558
NOAA-19
1 33591U 09005A   24251.86270789  .00000752  00000-0  42662-3 0  9993
2 33591  99.0395 308.5097 0014611  61.8650 298.3996 14.13107951803301
SRMSAT
1 37841U 11058D   24251.56692156  .00001094  00000-0  45304-3 0  9995
2 37841  19.9732  18.4991 0011668 280.9982 142.6470 14.11196757666215
RS-40
1 38735U 12041C   24251.86652697  .00000054  00000-0  32113-3 0  9999
2 38735  82.4737 118.3467 0018187  40.2416 320.0006 12.42615008549548
ZACUBE-1
1 39417U 13066B   24251.86138731  .00014742  00000-0  14709-2 0  9992
2 39417  97.7407 206.0762 0047207 245.5495 114.0795 14.90793619583896
Delfi-N3xt
1 39428U 13066N   24251.53334703  .00017951  00000-0  21827-2 0  9999
2 39428  97.8323 167.7768 0097721 179.9936 180.1294 14.80129984578261
GOMX-1
1 39430U 13066Q   24251.85898074  .00009081  00000-0  14811-2 0  9993
2 39430  97.7186 121.2221 0138160 350.5912   9.2707 14.64951958575143
LO-74
1 39440U 13066AA  24251.84860594  .00017726  00000-0  20109-2 0  9991
2 39440  97.8163 193.8063 0068285   5.8154 354.3838 14.84689140581797
AO-73
1 39444U 13066AE  24251.85186098  .00019310  00000-0  17731-2 0  9994
2 39444  97.7272 209.4259 0044511 223.3414 136.4303 14.94110860583038
DTUSAT-2
1 40030U 14033W   24251.84496959  .00020316  00000-0  16200-2 0  9999
2 40030  98.0184 206.6058 0007567 242.4696 117.5758 15.00331334555590
EO-80
1 40032U 14033Y   24251.41140815  .00019812  00000-0  15802-2 0  9997
2 40032  98.0097 206.1426 0007477 210.4105 149.6685 15.00328562554996
XW-2C
1 40906U 15049H   24251.84943927  .00086816  00000-0  15154-2 0  9995
2 40906  97.4736 271.2014 0006189  29.1284 331.0311 15.50368045497249
XW-2D
1 40907U 15049J   24251.86970180  .00164923  00000-0  17465-2 0  9992
2 40907  97.4652 274.9019 0002809  30.5653 329.5768 15.63593262497550
LILACSAT-2
1 40908U 15049K   24251.87237087  .00025104  00000-0  89726-3 0  9993
2 40908  97.5248 261.3033 0013598  66.1157 294.1506 15.28723590496118
XW-2B
1 40911U 15049N   24251.82134709  .00157179  00000-0  17633-2 0  9994
2 40911  97.4629 274.7887 0003211  34.1571 325.9893 15.62130805497409
IO-86
1 40931U 15052B   24231.70395842  .00002296  00000-0  22250-3 0  9993
2 40931   5.9997 265.9807 0013402 250.6059 109.2619 14.78018769480834
ChubuSat-2
1 41338U 16012B   24251.30693542  .00016006  00000-0  95899-3 0  9991
2 41338  31.0002 221.7626 0010621 336.2467  23.7680 15.09779723470012
ChubuSat-3
1 41339U 16012C   24251.61604280  .00014525  00000-0  88763-3 0  9993
2 41339  31.0070 218.8158 0010636 343.6048  16.4245 15.09050157470039
Horyu-4
1 41340U 16012D   24251.14505361  .00033830  00000-0  15328-2 0  9999
2 41340  31.0006 160.3400 0007425  81.9962 278.1522 15.19670607470618
Lapan A3
1 41603U 16040E   24251.81613718  .00009152  00000-0  35556-3 0  9998
2 41603  97.1428 261.8413 0012601 159.2984 200.8768 15.26200991455820
Pratham
1 41783U 16059A   24251.77220685  .00003733  00000-0  69567-3 0  9997
2 41783  97.8353 267.2426 0033800 117.5215 242.9431 14.65228830424638
CAS-2T
1 41847U 16066G   24251.56074923  .00003199  00000-0  47472-3 0  9992
2 41847  98.4535 322.2483 0351280 289.2844  67.0667 14.41728210411367
CAS-4B
1 42759U 17034B   24251.82209444  .00043700  00000-0  13581-2 0  9993
2 42759  43.0150 118.2288 0012248 193.6185 166.4339 15.32574516400063
CAS-4A
1 42761U 17034D   24251.88154832  .00047974  00000-0  14803-2 0  9997
2 42761  43.0189 116.1746 0012259 206.2208 153.8026 15.32765949400080
